Regional Weather Roundup
Issued by NWS

Home | Current Version | Previous Version | Graphics & Text | Print | Product List | Glossary On
Versions: 1 2 3 4 5 6 7 8 9 10 11 12 13 14 15 16 17 18 19 20 21 22 23 24 25 26 27 28 29 30 31 32 33 34 35 36 37 38 39 40 41 42 43 44 45 46 47 48 49 50
000
ASUS43 KFSD 020910
RWRSD

WEATHER ROUNDUP FOR SOUTH DAKOTA
NATIONAL WEATHER SERVICE SIOUX FALLS SD
400 AM CDT TUE SEP 02 2014

NOTE: "FAIR" INDICATES FEW OR NO CLOUDS BELOW 12,000 FEET WITH NO
SIGNIFICANT WEATHER AND/OR OBSTRUCTIONS TO VISIBILITY.


SDZ001>005-009-010-012>017-021000-
NORTHWEST AND NORTH CENTRAL SOUTH DAKOTA

CITY           SKY/WX    TMP DP  RH WIND       PRES   REMARKS
BUFFALO          N/A     50  43  77 SW9       29.86S
FAITH            N/A     50  47  89 SW10      29.92F
MOBRIDGE       CLEAR     50  49  96 CALM      29.88S
$$

SDZ012>016-024>037-041>051-057-063-072>074-021000-
SOUTHWEST AND SOUTH CENTRAL SOUTH DAKOTA

CITY           SKY/WX    TMP DP  RH WIND       PRES   REMARKS
RAPID CTY ARPT CLEAR     46  41  82 CALM      29.99S
PIERRE         CLEAR     54  52  93 SW14      29.91S
CUSTER         CLEAR     46  38  73 W9        30.08S
ELLSWORTH AFB  CLEAR     51  42  71 SW5       29.97F
PHILIP         CLEAR     50  48  93 W6        29.96S
PINE RIDGE     CLEAR     40  39  97 MISG      30.03S
WINNER         FAIR      54  50  86 SW7       29.96S
$$

SDZ004>011-016>023-039-040-021000-
NORTHEAST SOUTH DAKOTA

CITY           SKY/WX    TMP DP  RH WIND       PRES   REMARKS
ABERDEEN       CLEAR     48  48 100 SW6       29.88S
WATERTOWN      CLEAR     54  51  90 W3        29.89R
SISSETON         N/A     54  53  97 CALM      29.85R
$$

SDZ017-020-022-023-036>040-048>070-021000-
SOUTHEAST SOUTH DAKOTA

CITY           SKY/WX    TMP DP  RH WIND       PRES   REMARKS
SIOUX FALLS    MOCLDY    58  55  90 W3        29.92R
HURON          CLEAR     53  51  93 CALM      29.91R
CHAMBERLAIN    CLEAR     54  52  94 W6        29.94R
MITCHELL       CLEAR     59  56  89 SW8       29.92R
YANKTON        CLEAR     57  55  94 W9        29.94R
$$

ABBREVIATIONS USED IN REMARKS
   TC - TEMPERATURE IN CELSIUS
  WCI - WIND CHILL INDEX
   HX - HEAT INDEX
  VSB - VISIBILITY



USA.gov is the U.S. government's official web portal to all federal, state and local government web resources and services.